Theta_e
326 327 328 329 331 331 331 330 329 331 331 334 333 336 336 336 334 334 333 335 332 330 329 332 332 331 331 332 331 331 330 327
325 326 328 329 331 330 328 327 329 330 331 333 335 337 334 335 334 336 334 333 330 329 331 333 332 331 331 331 331 331 328 328
325 326 327 329 330 328 326 327 328 331 331 334 334 336 335 334 333 334 336 334 331 332 332 332 333 332 328 328 332 330 328 328
324 326 328 329 328 326 326 327 327 330 332 332 333 332 332 332 333 333 335 334 333 332 333 331 332 327 309 310 322 331 330 328
325 326 328 329 328 327 326 327 328 328 331 331 332 332 332 332 333 332 334 334 332 332 332 333 329 326 306 303 308 332 331 327
326 328 330 330 328 326 328 327 326 327 331 329 330 329 329 330 330 330 333 334 333 333 333 333 330 321 304 303 305 332 331 330
328 331 332 331 328 327 326 326 325 326 328 328 329 330 330 331 332 332 333 332 330 331 333 333 329 324 305 303 315 332 330 330
329 331 333 331 329 328 326 325 324 326 328 329 330 331 332 332 335 335 335 335 335 334 331 331 319 326 304 302 315 331 328 328
332 332 331 331 330 328 325 325 323 327 329 331 332 333 332 335 337 336 337 334 334 332 331 331 330 327 318 305 306 331 328 327
331 331 332 332 330 327 325 326 326 327 329 330 333 335 333 335 337 338 336 334 332 331 329 329 330 329 311 306 304 313 318 326
330 331 333 331 329 327 326 328 327 327 329 333 333 334 334 336 335 335 333 334 331 329 328 326 326 328 324 303 305 309 311 326
329 332 332 330 329 328 329 328 326 326 329 333 333 332 333 334 333 334 332 331 330 329 327 325 327 327 326 326 325 321 310 314
329 331 332 331 329 328 329 327 326 327 330 332 333 333 333 333 332 328 331 326 323 329 330 329 328 326 325 319 322 327 326 319
328 332 334 332 330 328 327 327 327 329 328 330 331 331 332 331 329 325 298 303 300 299 301 324 330 313 304 305 305 306 304 304
329 329 332 333 331 328 327 327 326 329 328 329 328 326 330 330 328 327 325 312 299 299 301 306 310 311 303 301 299 299 301 305
330 330 330 333 332 329 328 327 326 329 329 312 328 326 330 330 329 330 328 326 324 322 305 309 303 300 299 298 297 304 317 313
332 330 328 330 332 330 330 327 327 328 327 326 326 326 327 324 330 329 329 328 326 324 316 308 298 295 295 296 299 326 324 324
326 329 331 329 331 333 331 328 328 328 329 314 317 326 323 325 324 325 326 327 327 325 322 319 314 310 318 319 318 325 323 324
326 331 333 334 333 334 332 329 330 327 328 326 315 324 323 323 323 324 323 323 326 325 325 321 304 318 320 321 322 323 322 321
330 332 331 334 329 330 335 330 331 327 327 327 325 323 324 322 323 323 324 324 323 323 324 319 296 319 320 320 321 322 324 324
Wind_Speed
17 16 15 14 13 12 12 10 10 10 9 11 8 7 6 4 5 4 5 6 5 4 4 5 7 5 3 3 2 2 3 5
16 15 14 14 13 13 12 10 10 9 8 12 9 8 5 6 5 3 4 5 4 1 6 6 7 6 3 2 2 2 4 6
15 14 14 13 13 12 11 10 10 8 9 11 8 9 6 7 5 3 1 4 5 7 6 5 6 6 5 6 3 2 6 7
16 14 15 14 13 12 11 10 10 8 14 11 8 9 8 8 6 5 3 3 5 6 5 4 7 7 8 9 7 5 9 8
15 14 13 12 12 11 10 10 10 8 13 9 8 9 11 9 8 7 5 4 4 4 6 6 8 5 8 9 10 5 8 8
14 13 13 13 12 12 10 11 10 9 13 12 9 10 9 9 8 7 6 4 4 6 5 6 8 4 6 7 9 6 7 8
13 13 13 12 12 12 11 11 10 11 10 11 11 11 9 7 6 8 6 5 4 3 5 5 9 5 4 7 6 6 6 7
14 15 14 13 11 12 10 11 10 11 11 12 11 14 11 6 7 6 5 5 5 5 6 6 10 6 4 7 5 6 8 7
15 15 14 13 12 12 11 11 10 10 11 11 11 13 11 9 6 6 5 6 6 6 7 6 8 7 3 5 6 7 8 8
16 14 14 13 13 12 12 11 10 10 11 11 14 14 10 8 10 5 9 6 8 7 8 7 6 7 4 1 4 5 7 8
8 14 15 14 14 13 12 11 11 11 11 10 13 10 11 10 7 9 8 6 7 7 7 7 6 6 4 6 7 9 6 9
9 15 16 14 14 14 11 13 12 12 11 10 13 10 12 11 7 5 8 8 8 7 7 5 8 7 6 5 4 5 10 9
8 11 15 16 15 14 13 14 13 10 11 10 10 8 10 9 7 3 5 6 2 8 8 9 9 8 9 10 9 7 7 8
7 8 15 16 15 14 14 14 13 11 11 9 9 9 8 8 7 5 12 10 12 13 6 10 7 14 18 15 12 12 13 17
9 9 10 16 16 15 15 14 14 13 12 11 9 8 10 9 8 8 6 4 9 11 11 13 16 17 18 16 12 12 17 12
6 9 12 14 16 16 15 15 15 14 12 14 9 9 10 9 9 9 9 7 6 5 7 5 13 18 16 14 14 11 5 4
13 7 10 14 16 16 16 16 15 15 13 10 10 11 8 11 9 9 9 11 9 8 6 6 7 10 8 8 15 8 9 9
12 11 10 9 11 16 16 16 14 13 13 13 13 9 9 10 9 10 9 9 11 11 10 9 8 7 7 8 8 9 9 9
12 11 8 13 4 12 16 16 15 12 11 12 12 10 11 9 10 9 9 9 10 11 12 13 15 11 10 11 10 10 10 9
14 14 15 14 15 13 9 16 16 12 12 12 11 12 9 10 10 9 9 9 10 11 10 13 19 13 12 11 11 11 11 11
Wind_Direction
142 150 150 153 150 157 157 166 157 161 185 136 139 118 128 150 154 195 186 168 188 220 154 127 85 84 54 64 62 71 162 133
147 154 152 157 153 161 157 170 154 172 184 126 123 124 153 153 155 186 263 176 148 123 125 109 115 103 97 155 153 85 87 120
151 155 154 157 158 154 161 165 160 173 132 121 127 136 158 140 140 155 20 76 56 123 107 106 125 123 62 19 43 123 111 98
154 160 157 158 160 159 161 159 153 168 124 137 144 160 155 139 150 147 152 128 120 101 120 113 80 84 53 37 14 100 110 104
161 161 159 154 160 159 160 151 152 165 127 145 158 144 144 155 164 156 153 141 115 128 121 110 93 88 44 23 11 104 109 110
156 157 153 151 158 150 161 151 160 172 152 153 164 155 148 141 157 158 157 153 150 129 140 128 106 80 32 17 351 105 114 131
153 153 150 149 157 149 164 159 170 174 164 149 160 123 132 129 122 116 129 133 123 143 131 134 108 102 21 13 347 109 102 106
148 150 145 149 157 152 164 162 180 178 165 162 155 137 144 154 123 129 145 142 133 141 135 86 104 107 35 17 20 113 103 97
142 147 151 153 154 157 174 164 187 181 165 158 135 127 138 126 125 138 126 115 117 112 117 112 112 114 80 23 20 116 121 119
150 150 149 154 158 164 182 165 187 183 163 157 131 128 141 130 137 146 117 130 119 119 120 118 118 104 93 100 51 108 139 126
193 155 150 158 164 172 184 164 187 181 162 145 135 152 131 135 148 147 132 147 141 144 152 141 134 128 105 87 70 83 98 119
266 157 156 165 170 174 188 165 190 177 159 151 149 165 143 146 156 182 155 171 169 163 146 147 143 140 130 137 127 103 84 90
248 181 163 167 173 176 187 173 189 170 157 157 152 160 151 151 164 199 174 63 129 168 165 163 150 150 150 153 150 146 135 132
234 249 164 165 174 178 187 178 186 163 159 162 167 172 168 166 157 134 42 79 102 98 102 167 152 134 142 157 160 154 141 153
283 226 193 167 174 182 184 186 180 165 167 164 173 192 174 174 186 163 141 67 50 69 70 108 138 151 151 151 149 159 165 162
295 260 218 179 173 182 183 191 176 169 172 168 180 202 171 197 181 184 172 162 166 131 32 89 132 147 153 148 144 134 157 220
328 265 248 207 180 181 183 191 176 172 174 176 193 184 196 187 184 193 191 171 177 170 126 88 89 83 94 143 162 175 184 203
339 330 305 224 211 174 183 189 175 174 176 192 186 187 207 180 201 189 199 181 175 178 165 162 156 146 171 180 197 204 203 204
326 315 327 345 319 187 187 181 174 176 176 191 192 223 191 197 193 197 199 197 183 185 183 173 167 181 184 189 191 203 216 215
1 14 15 354 15 346 318 178 173 179 183 186 190 202 219 202 193 207 197 202 204 191 189 167 166 187 193 198 203 208 214 221